Home   Weather   Valencia   Past weeks

Flag for Spain Past Weather in Valencia, Spain — Yesterday and Last 2 Weeks

Now
84 °F

Scattered clouds.


Feels Like: 88 °F
Forecast: 72 / 82 °F
Wind: 12 mph from East

Location: Valencia / Aeropuerto

Current Time: Aug 30, 2016 at 3:17:06 PM

Latest Report: Aug 30, 2016 at 2:30 PM


Visibility: N/A

Pressure: 30.07 "Hg

Humidity: 62%

Dew Point: 70 °F

Location of ValenciaLocation

Past Weather in Valencia — Graph

°F

Valencia Temperature Yesterday

Maximum temperature yesterday: 86 °F (at 1:00 PM)
Minimum temperature yesterday: 77 °F (at 7:00 AM)
Average temperature yesterday: 81 °F

High & Low Weather Summary for the Past Weeks

 TemperatureHumidityPressure
High90 °F (Aug 17, 12:30 PM)94% (Aug 16, 6:30 AM)30.24 "Hg (Aug 16, 6:30 AM)
Low66 °F (Aug 25, 7:30 AM)29% (Aug 24, 3:30 PM)29.80 "Hg (Aug 19, 4:00 PM)
Average79 °F69%30.03 "Hg
* Reported Aug 15 2:00 PM — Aug 30 2:00 PM, Valencia, Weather by CustomWeather, © 2016

Note: Actual official high and low records may vary slightly from our data, if they occured in-between our weather recording intervals... More about our weather records

Advertising

Valencia Weather History for the Previous 24 Hours

Scroll right to see more
 ConditionsComfort  
Time TempWeatherWind HumidityBarometerVisibility
2:00 PM
Tue, Aug 30
84 °FPartly sunny.9 mph58%30.07 "HgN/A
1:30 PM82 °FPartly sunny.10 mph62%30.07 "HgN/A
1:00 PM82 °FScattered clouds.10 mph62%30.09 "HgN/A
12:30 PM84 °FPartly sunny.10 mph58%30.09 "HgN/A
12:00 PM81 °FPartly sunny.13 mph62%30.09 "HgN/A
11:30 AM82 °FPartly sunny.13 mph58%30.09 "HgN/A
11:00 AM81 °FBroken clouds.13 mph62%30.09 "HgN/A
10:30 AM81 °FScattered clouds.10 mph62%30.09 "HgN/A
10:00 AM79 °FScattered clouds.10 mph65%30.09 "HgN/A
9:30 AM79 °FScattered clouds.8 mph70%30.09 "HgN/A
9:00 AM79 °FScattered clouds.7 mph74%30.07 "HgN/A
8:30 AM77 °FScattered clouds.6 mph79%30.07 "HgN/A
8:00 AM77 °FPassing clouds.9 mph79%30.07 "HgN/A
7:30 AM77 °FPassing clouds.6 mph83%30.07 "HgN/A
7:00 AM77 °FPassing clouds.5 mph83%30.07 "HgN/A
6:30 AM79 °FPassing clouds.2 mph79%30.07 "HgN/A
6:00 AM79 °FPassing clouds.2 mph79%30.07 "HgN/A
5:30 AM79 °FPassing clouds.3 mph79%30.04 "HgN/A
5:00 AM79 °FPartly cloudy.3 mph79%30.04 "HgN/A
4:30 AM79 °FPassing clouds.5 mph84%30.07 "HgN/A
4:00 AM79 °FPartly cloudy.3 mph84%30.07 "HgN/A
3:30 AM79 °FPassing clouds.3 mph84%30.07 "HgN/A
3:00 AM79 °FPassing clouds.3 mph79%30.07 "HgN/A
2:30 AM79 °FPartly cloudy.1 mph79%30.07 "HgN/A
2:00 AM79 °FPassing clouds.No wind84%30.09 "HgN/A
1:30 AM79 °FPassing clouds.1 mph84%30.09 "HgN/A
1:00 AM79 °FPassing clouds.3 mph84%30.09 "HgN/A
12:30 AM79 °FPassing clouds.5 mph84%30.09 "HgN/A
12:00 AM79 °FPassing clouds.3 mph84%30.09 "HgN/A
11:30 PM
Mon, Aug 29
79 °FPassing clouds.6 mph84%30.09 "HgN/A
11:00 PM81 °FPassing clouds.6 mph74%30.09 "HgN/A
10:30 PM81 °FPassing clouds.3 mph74%30.09 "HgN/A
10:00 PM81 °FPassing clouds.5 mph74%30.07 "HgN/A
9:30 PM81 °FPassing clouds.6 mph74%30.07 "HgN/A
9:00 PM81 °FPassing clouds.7 mph74%30.04 "HgN/A
8:30 PM81 °FPassing clouds.9 mph74%30.04 "HgN/A
8:00 PM81 °FPassing clouds.7 mph74%30.04 "HgN/A
7:30 PM81 °FPassing clouds.10 mph74%30.04 "HgN/A
7:00 PM82 °FPassing clouds.12 mph70%30.04 "HgN/A
6:30 PM84 °FPassing clouds.10 mph66%30.04 "HgN/A
6:00 PM84 °FPassing clouds.8 mph62%30.04 "HgN/A
5:30 PM84 °FPassing clouds.10 mph62%30.04 "HgN/A
5:00 PM84 °FPassing clouds.10 mph66%30.04 "HgN/A
4:30 PM84 °FPassing clouds.9 mph62%30.04 "HgN/A
4:00 PM86 °FPassing clouds.12 mph59%30.04 "HgN/A
3:30 PM86 °FPassing clouds.12 mph55%30.07 "HgN/A
3:00 PM86 °FPassing clouds.10 mph59%30.07 "HgN/A
Weather by CustomWeather, © 2016

See weather overviewHow to use our weather pages